Overview Statistics Trail Chart Weather Telemetry Raw packets
 

This is the latest recevied weather packets stored in our database for station/object EA2FBA-10. If no packets are shown the sender has not sent any weather packets the latest 10 day(s).

<< 5 6 7 8 9 10 11 >>
Time Temp. Humidity Pressure Rain* Wind** Luminosity Snow
1788536477 32.22° C 25% 958.2 hPa - - - -
1788535587 32.78° C 24% 958.2 hPa - - - -
1788535577 32.78° C 24% 958.2 hPa - - - -
1788534687 31.67° C 26% 958.3 hPa - - - -
1788534677 31.67° C 26% 958.3 hPa - - - -
1788533777 30.56° C 28% 958.3 hPa - - - -
1788532877 32.22° C 25% 958.6 hPa - - - -
1788531977 31.11° C 27% 958.6 hPa - - - -
1788531077 28.89° C 29% 958.5 hPa - - - -
1788530177 30.56° C 26% 958.6 hPa - - - -
1788529286 29.44° C 28% 958.7 hPa - - - -
1788529277 29.44° C 28% 958.7 hPa - - - -
1788528386 28.89° C 29% 958.8 hPa - - - -
1788528376 28.89° C 29% 958.8 hPa - - - -
1788527486 30.56° C 25% 959 hPa - - - -
1788527476 30.56° C 25% 959 hPa - - - -
1788526586 26.67° C 32% 959.1 hPa - - - -
1788526576 26.67° C 32% 959.1 hPa - - - -
1788525686 28.89° C 28% 959.1 hPa - - - -
1788525676 28.89° C 28% 959.1 hPa - - - -
1788524776 29.44° C 27% 959.4 hPa - - - -
1788523885 25.56° C 34% 959.4 hPa - - - -
1788523876 25.56° C 34% 959.4 hPa - - - -
1788522985 24.44° C 39% 959.5 hPa - - - -
1788522976 24.44° C 39% 959.5 hPa - - - -

* Rain since midnight (hover to see other rain measurements)
** Current wind speed in m/s (hover to see current wind gust speed)